Location: Brown Observing Site
(43.4354°N, 116.3366°W)
Time: 03:05:05
(UTC-06:00)

Envisat - Pass Details

Date: 05 October 2020
Orbit: 764 x 766 km, 98.1° (Epoch: 23 October)

Event Time Altitude Azimuth Distance (km) Brightness Sun altitude
Rises 06:19:18 0° 35° (NE) 3,237 6.9 -16.9°
Reaches altitude 10° 06:23:20 10° 67° (ENE) 2,304 6.7 -16.2°
Maximum altitude 06:25:08 12° 88° (E) 2,177 6.6 -15.9°
Drops below altitude 10° 06:26:56 10° 109° (ESE) 2,297 6.5 -15.5°
Sets 06:30:55 0° 140° (SE) 3,216 6.7 -14.8°
